Home > Weather > Akron > Past weeks

Flag for U.S.A. Weather for the Past 2 Weeks in Akron, Ohio, U.S.A.

Now
12 °F

Partly sunny.


Feels Like: -3 °F
Forecast: 8 / 12 °F
Wind: 14 mph from Northwest

Location: Akron Fulton International Airport

Current Time: Feb 13, 2016 at 5:26:20 PM

Latest Report: Feb 13, 2016 at 3:54 PM


Visibility: 9 mi

Pressure: 30.45 "Hg

Humidity: 61%

Dew point: 1 °F

Location of AkronLocation

Historic Weather in Akron — Graph

°F

Akron Temperature Yesterday

Maximum temperature yesterday: 23 °F (at 2:54 PM)
Minimum temperature yesterday: 7 °F (at 12:54 AM)
Average temperature yesterday: 18 °F

High & Low Weather Summary for the Past Weeks

 TemperatureHumidityPressure
High63 °F (Feb 3, 12:54 PM)90% (Feb 3, 4:54 AM)30.45 "Hg (Feb 3, 4:54 AM)
Low5 °F (Feb 11, 9:54 PM)35% (Feb 3, 3:54 PM)29.53 "Hg (Feb 8, 2:04 PM)
Average33 °F66%29.97 "Hg
* Reported Jan 29 3:54 PM — Feb 13 3:54 PM, Akron, Weather by CustomWeather, © 2016

Note: Actual official high and low records may vary slightly from our data, if they occured in-between our weather recording intervals... More about our weather records

Advertising

Akron Weather History for the Previous 24 Hours

 ConditionsComfort  
Time TempWeatherWind HumidityBarometerVisibility
3:54 PM
Sat, Feb 13
12 °FPartly sunny.14 mph61%30.45 "Hg9 mi
2:54 PM12 °FMostly cloudy.10 mph56%30.44 "Hg4 mi
2:02 PM11 °FLight snow. Mostly cloudy.14 mph64%30.38 "Hg2 mi
1:58 PM12 °FLight snow. Mostly cloudy.13 mph61%30.38 "Hg3 mi
12:54 PM11 °FMostly cloudy.20 mph51%30.45 "Hg6 mi
12:00 PM11 °FLight snow. Mostly cloudy.14 mph64%30.39 "Hg2 mi
10:54 AM10 °FPartly sunny.16 mph50%30.43 "Hg8 mi
9:54 AM9 °FBroken clouds.9 mph58%30.42 "Hg10 mi
8:54 AM7 °FOvercast.16 mph66%30.40 "Hg5 mi
7:54 AM7 °FLight snow. Overcast.12 mph66%30.38 "Hg2 mi
6:54 AM7 °FLight snow. Overcast.14 mph60%30.34 "Hg5 mi
5:54 AM6 °FPassing clouds.10 mph57%30.32 "Hg10 mi
4:54 AM8 °FOvercast.13 mph54%30.29 "Hg8 mi
3:54 AM8 °FOvercast.17 mph63%30.27 "Hg5 mi
2:54 AM10 °FClear.14 mph55%30.24 "Hg7 mi
2:02 AM11 °FPassing clouds.23 mph64%30.16 "Hg2 mi
1:54 AM13 °FMostly cloudy.15 mph64%30.21 "Hg5 mi
12:54 AM13 °FPassing clouds.17 mph67%30.18 "Hg5 mi
12:01 AM16 °FPassing clouds.13 mph67%30.08 "Hg10 mi
10:54 PM
Fri, Feb 12
17 °FLight snow. Overcast.10 mph76%30.10 "Hg2 mi
9:50 PM19 °FSnow. Ice fog.13 mph77%30.07 "Hg1 mi
9:04 PM19 °FLight snow. Ice fog.18 mph77%30.00 "Hg1 mi
8:01 PM20 °FLight snow. Overcast.17 mph78%29.97 "Hg1 mi
6:54 PM21 °FMostly cloudy.12 mph74%29.99 "Hg9 mi
6:04 PM21 °FLight snow. Overcast.10 mph74%29.94 "Hg2 mi
Weather by CustomWeather, © 2016

See weather overviewHow to use our weather pages